TIMESTAMP,CO2_1_1_1,H2O_1_1_1,TAU_1_1_1,TAU_SSITC_TEST_1_1_1,H_1_1_1,H_SSITC_TEST_1_1_1,LE_1_1_1,LE_SSITC_TEST_1_1_1,FC_1_1_1,FC_SSITC_TEST_1_1_1,WD_0_0_1,WS_0_0_1,WS_MAX_0_0_1,U_SIGMA_0_0_1,V_SIGMA_0_0_1,W_SIGMA_0_0_1,USTAR_0_0_1,MO_LENGTH_0_0_1,ZL_0_0_1,FETCH_MAX_0_0_1,FETCH_70_0_0_1,FETCH_80_0_0_1,FETCH_90_0_0_1,PA_0_0_1,RH_0_0_1,TA_0_0_1,VPD_0_0_1,T_SONIC_0_0_1,T_SONIC_SIGMA_0_0_1
[yyyymmddHHMMSS],[mmolCO2 mol-1],[mmolH2O mol-1],[kg m-1 s-2],[#],[W m-2],[#],[W m-2],[#],[umolCO2 m-2 s-1],[#],[Decimal degrees],[m s-1],[m s-1],[m s-1],[m s-1],[m s-1],[m s-1],[m],[#],[m],[m],[m],[m],[kPa],[%],[deg C],[hPa],[deg C],[deg C]
20211207003000,421.66952774760085,1.4691568793160261,1.2030553828567963,0,-114.37744244115838,0,4.8706644182241119,0,0.43980822569545569,1,237.70059749973842,4.0202719074082935,13.177340262735594,1.9895222432065123,1.2307416753189131,1.0278177857076243,0.97213543119927981,668.74713742242841,2.8411336567708168E-002,119.75769117037856,218.95525421605151,262.03351734438837,328.03486968685820,93.919808492181858,80.342758620689651,-16.263448275862061,0.33768959701621354,-16.873036489842150,0.41401931016936050
20211207010000,421.80559398219714,1.4346374582626387,0.65063962021680921,0,-16.127883786277241,0,3.0578754338683933,0,0.57970790408555972,0,237.10879968994524,3.4937977082207059,9.6396671115702333,1.5459460376645158,1.1976321225230000,0.86851909229031921,0.71427758726455448,1881.9694245568980,1.0095806952056871E-002,107.08410773894876,195.78390167127719,234.30332639431001,293.31996120152405,93.971233746674983,80.583333333333329,-16.577333333333343,0.32492492023520780,-17.254613779721240,0.17311637094908672
20211207013000,421.85178177628541,1.4039684509914383,0.52908318072855132,0,-23.417547441656129,1,0.96038294087617426,2,0.38132567240176701,0,242.88672425751594,3.4954207293818622,9.6033117149876457,1.4754864495705207,1.0982668733702932,0.85216102356308221,0.64362013172154708,948.51687951459382,2.0031272411012130E-002,100.03253220493389,182.89137261043126,218.87426190634514,274.00460334198851,94.004962042968756,80.853333333333339,-16.870999999999981,0.31262222785445287,-17.497197834933246,0.17588035601518995
20211207020000,421.86911696845675,1.3697947048454315,0.54967378728376470,0,-17.941171222233599,1,-0.29283018986811338,2,0.50751841529214392,1,241.34192469894441,3.3625435454702086,9.4770886075891099,1.3698548111645610,1.0480483064090897,0.82422256374250147,0.65559490297192491,1308.5890670945009,1.4519454944084366E-002,104.26240894933154,190.62493634918539,228.12936252189456,285.59089106246483,94.020881189670135,80.836666666666673,-17.159999999999997,0.30539290035650796,-17.754083204481333,0.14049629033058489
20211207023000,422.01658760273506,1.3425184226865192,0.39338078675898558,0,-3.4770669288827265,1,0.39727679843383989,0,0.34884967665497552,0,239.40117330887563,3.0395076938345471,7.7113843050864403,1.2572278988402257,1.1103461084114443,0.80372985491405824,0.55425461821848721,4080.7540509418545,4.6560022394916750E-003,93.010991851667129,170.05375743922247,203.51091531907281,254.77151649575015,94.045249526475700,81.010000000000005,-17.421333333333337,0.29604649858013488,-18.002679588741728,0.13385692175439345
20211207030000,422.15246151868530,1.2935539966814382,0.52606626698717318,0,-4.2453252923837663,2,-3.3848087981694825,2,0.44462811553604398,0,235.88919973580704,3.6310383592453350,8.8221659672052670,1.3305329956496088,1.1473127934573335,0.81895919832079467,0.64034782856874461,5155.4868955146858,3.6853939084842114E-003,102.84373499734477,188.03114790210327,225.02526021355024,281.70492331859748,94.078965083142919,80.646666666666661,-17.804000000000002,0.29212110037545119,-18.348333139564716,0.16969575825123212
20211207033000,422.38536592562912,1.2339843191817306,0.65183542600883548,0,-27.817982383550508,1,-1.0069778034081616,2,0.95396498280398134,1,249.09056033641428,3.0491444428330583,8.9252454062080560,1.4028271988162850,1.0804883285299094,0.78786232705746428,0.71218340739475305,1082.3103219090767,1.7555039082031560E-002,115.49631107112383,211.16409229713898,252.70948641796980,316.36228939674191,94.070959890625005,79.942666666666668,-18.257999999999981,0.29132399495886563,-18.800603459676040,0.22908072128669199
20211207040000,422.70166515296154,1.1880376658939931,0.48655531953273118,0,-19.613021398848140,1,2.5450096423319293,1,2.8300845253393585E-002,2,248.41665193160372,2.7863696030785294,7.5954048599775259,1.1687097774299355,0.90103697565582264,0.68955345345900754,0.61474879471705302,987.24613107513642,1.9245453997685978E-002,114.22435076277479,208.83854318254333,249.92639808133035,312.87819305254533,94.064481462839296,80.113666666666660,-18.729999999999990,0.27747282801556450,-19.255414793982482,0.20308521282336442
20211207043000,423.01441726078889,1.1314689178989199,0.37909578357448720,0,-39.006892291018438,0,-2.2849573822158180E-002,1,0.30178376953340191,0,240.94087138691293,2.7129011234636882,7.6874300356037955,1.0819682203461489,0.83982075976603610,0.65121702938072346,0.54207083445343751,340.37042133819193,5.5821536798938254E-002,108.12326052301904,197.68380438133963,236.57702469633188,296.16636166879982,94.080389745225702,79.494666666666660,-19.208333333333343,0.27465471326501656,-19.717676591237364,0.19600340791039633
20211207050000,423.25565347443700,1.0990255462309053,0.17392591505414692,0,-42.322039981798270,0,-0.77049219459241847,1,0.47391184054843044,0,232.54165745333123,2.4995795489249395,5.2544526469043920,0.79496204209797938,0.61020656887122537,0.46946328998740017,0.36690311542075593,97.271836274789237,0.19532889197573822,102.80511162521255,187.96053205955280,224.94075108555521,281.59912791856561,94.073411652994778,79.771333333333331,-19.588999999999999,0.26224762758636982,-20.063095873938607,0.16580390231343473
20211207053000,423.29795864273797,1.1000344999716980,0.29658453631640197,0,-51.234022003266276,0,-0.77316280197923615,1,0.71149848433209117,0,223.79864972760419,2.9902416477365845,7.1877231022846608,1.0066912518523119,0.77112411566368155,0.58466170997173295,0.47900871393400279,178.82873281305243,0.10624690843088734,106.75934708121700,195.19013561184417,233.59274007113629,292.43039144615113,94.093434057508688,80.295000000000002,-19.651999999999987,0.25407974271138883,-20.122382920583078,0.16973581601904572
20211207060000,423.46018675687185,1.0951824062243753,0.32668779818440641,0,-43.700424270370981,0,-1.4563676275192854,0,0.97614812146684582,0,214.32666136115139,3.3948094162359999,8.2239009164220160,1.2472823182228199,0.92106789511103193,0.69389721933440451,0.50242579018890821,242.03434706015130,7.8501255011042076E-002,96.711099655980732,176.81873459436548,211.60686517450497,264.90668501439274,94.148628483289926,81.086666666666659,-19.810666666666663,0.24056672976261267,-20.327499451107428,0.23214843344398384
20211207063000,423.55812981416938,1.0869234267398560,0.33394007096932177,0,-38.511574196450283,0,-0.66707741132217968,1,0.62209733458933125,0,220.75184492936643,3.2914855891488468,7.5893543061902591,1.0969371883035151,0.86221560424373178,0.65960769053161450,0.50770968351210610,283.43640201992076,6.7034438288786288E-002,101.55906379996104,185.68235922842206,222.21436006015156,278.18600988008865,94.165150070766188,82.003333333333330,-20.027000000000015,0.22468092229383715,-20.502224888739249,0.15640407366756157
20211207070000,423.69095051412336,1.0472793542970094,0.44406035269832705,0,-21.495181605215787,0,-0.25994378298959875,2,0.79255922543004720,0,212.85936216880637,3.6549579682726003,8.3918743462276311,1.1761236284064904,1.0059718420177590,0.79384490736020674,0.58497815061659864,776.95062538120226,2.4454578424050896E-002,98.079464384499474,179.32054173564416,214.60088935215592,268.65484800097818,94.200967513020842,81.273333333333341,-20.349333333333334,0.22737713639024462,-20.860141717274956,0.22451608092878464
20211207073000,423.74520814725872,1.0160617700246450,0.34926071139683423,0,-20.308739313926655,0,-0.50243598379272847,0,0.87095068421174038,0,213.57019677877901,3.5343178478635897,9.5587362255733517,1.1254084318609836,0.93055567452650279,0.71724485275184313,0.51847704010479467,572.63151994894952,3.3180150477385290E-002,96.583862849754283,176.58610513248553,211.32846712302828,264.55816368985847,94.218063856553826,80.648666666666671,-20.607666666666660,0.22976531444773984,-21.082717408286186,0.11917543866578205
20211207080000,423.66433435471163,1.0285116682651860,0.31088622316163916,0,-11.594147601157378,0,-0.46428223670494556,1,0.70347495412052208,0,217.48593593057612,3.4082684501827702,6.8449100528466635,1.0322654695752707,0.79859722918545095,0.62548318319153207,0.48922442314832293,842.75100149360128,2.2545212009628519E-002,102.87003640213281,188.07923525845862,225.08280849742542,281.77696694108141,94.231189800781252,80.976666666666659,-20.512333333333345,0.22774408143046201,-20.948189583672388,0.13823807855168038
20211207083000,423.65984452485088,1.0257950298147158,0.27945353727611877,0,7.7169681412236297,1,0.18380810271345133,2,0.75584550577563558,0,210.86797490981124,2.8611793351838184,7.0114079009295116,1.0279985249422900,0.83265032665139049,0.65471390971101795,0.46384420112538610,-1079.3961495997803,-1.7602434478800801E-002,95.041077373396732,173.76540123551317,207.95280497617989,260.33223525264674,94.260846766778840,80.152000000000001,-20.420999999999992,0.23950290983888509,-20.865057707524358,0.13927773491836221
20211207090000,423.69009051499017,1.0161401715303544,0.31268680369889473,0,-5.2959813560637965,1,8.5683102625163696E-002,2,0.49476730573065331,0,212.02426921333620,2.8871131935201220,6.9126797242811451,1.0866726406507501,0.90503392350560319,0.65404445140696998,0.49063850824724642,1861.5288175757253,1.0206664447313664E-002,99.489762073052859,181.89901570169781,217.68666413808219,272.51787186160107,94.267161632952750,79.364000000000004,-20.415333333333336,0.24913371358429018,-20.819581385124650,0.13640399732263586
20211207093000,423.72509329809094,1.0272470282806325,0.24601748888698638,0,7.0081610300416424,0,0.80687458034927262,0,0.49914628056918864,0,212.10856390580315,2.9732693185806918,7.2210458027711262,1.0513382768506334,0.88404760651186032,0.69381489205160585,0.43534142867192155,-982.45445544810741,-1.9339318881030375E-002,86.243029641948098,157.67976398901979,188.70240552120504,236.23301947051777,94.235063402994797,79.678666666666672,-20.339333333333343,0.24695284943600201,-20.752922723558186,0.12784730048840837
20211207100000,423.97357623847842,1.0214302594059901,0.24935235078708140,0,5.7523179848107961,1,-0.23241690102821541,2,0.50994398546417552,0,212.64910711363592,1.9962762021842675,5.2966140189181710,0.89270343490853254,0.68954298706840444,0.54579908950375966,0.43829153172324448,-1221.1575914205032,-1.5559007398789848E-002,105.06041647522993,192.08394861797416,229.87542757070179,287.77675730795534,94.204463660373264,79.687333333333328,-20.409999999999997,0.24534337093953226,-20.789732126447916,0.12787271612574033
20211207103000,424.03507532583791,1.0064640779104426,0.26929411370152712,0,9.7156667045752041,0,0.22113890265761746,0,0.72712587690682373,0,208.30394241567004,2.3304069255307156,6.0611687590946293,0.99554585438799403,0.75495844678015489,0.59853523624985516,0.45550645693528824,-811.32090918998119,-2.3418600192332658E-002,100.64188251288168,184.00545931567277,220.20753915080439,275.67370823961812,94.161137799045150,79.069999999999993,-20.496000000000009,0.25092500728353967,-20.869711621178510,0.11456130816540255
20211207110000,423.97598436876081,1.0110938645397654,0.18727218390915595,0,24.947728683331583,0,1.1621897663929186,1,0.57319187500678859,0,202.68338700063032,2.5254104244884954,6.8910902306547408,0.97855506663688407,0.80809751218091541,0.63171240268442408,0.37992057273440766,-183.33022113382245,-0.10363812295917590,83.366894883926420,152.42127235522298,182.40933407305337,228.35484078045593,94.162536138619885,78.814000000000007,-20.405333333333346,0.25599512785678558,-20.792408981666682,0.11079707417863935
20211207113000,424.28018443606510,1.0105913569791856,0.18669150876783300,0,-1.0705258639369102E-003,2,0.82332790138191581,0,1.0153834663859138,1,191.71269338323683,1.8571688384265765,5.1546232964725487,0.84686026277614224,0.74693211290116812,0.57152725202214061,0.37929950602701035,4250961.7690766510,4.4695767762990204E-006,90.200961431667054,164.91612561822643,197.36248219881679,247.07440782880525,94.147653166232644,79.323333333333338,-20.487333333333339,0.24807393080957837,-20.884544776492646,0.11092068674533011
20211207120000,424.64400513565624,1.0052399844533257,0.15274899210625087,0,-2.0563083884677806,1,5.2264803770071540E-002,0,0.43588855464045900,0,188.60449248961078,2.2368150815698895,4.8578883108381223,0.77236423026900713,0.72646605167474820,0.51159588448127136,0.34292156721128808,1635.5323250775321,1.1617012827367572E-002,90.922026315445933,166.23446219762371,198.94019437649476,249.04951625712039,94.155535103949660,80.482333333333330,-20.715000000000003,0.22959341489634952,-21.123235710991764,0.11148013819716150
20211207123000,424.94907093211185,0.99667194832442352,0.14590103486465827,0,-17.861429345166446,0,-6.0979502348211909E-002,2,0.60476733663163229,0,184.80526936520724,1.9703324935424589,4.9860668401200439,0.79890241464373291,0.76240117539848407,0.49909752424479698,0.33503656280912780,175.57883823649121,0.10821349651720819,91.029117202404521,166.43025849387061,199.17451253603045,249.34285478765477,94.140197826171871,81.223333333333329,-20.920999999999992,0.21696091755436173,-21.325756643507219,9.5585638278730733E-002
20211207130000,425.13250530896966,0.99231486951147241,0.11809488289148908,0,-18.494494171881364,0,0.63328218512255441,1,0.72292874348538660,0,177.10845725893054,2.0171059346933973,4.9772170790116173,0.82331431895471896,0.67365450816708716,0.45092345699893305,0.30148304488857336,123.49956050178113,0.15384670133887626,90.736694033528153,165.89561567757835,198.53468163460923,248.54186242417222,94.081849042751742,81.226666666666659,-20.979000000000013,0.21583137764500293,-21.369189963870554,9.7227571011843830E-002
20211207133000,425.07988446216348,0.97100765402643452,0.15283435379272681,0,-28.580881634904390,0,0.12674013708748838,1,0.65460454424072545,0,188.72355692173434,2.5582601422356563,6.0698656934879214,0.82352965307654924,0.70851606533810330,0.54088880965381092,0.34290908891233812,117.58620028373036,0.16158358679975907,86.958431917985052,158.98774751546873,190.26772773871042,238.19261713894301,94.074951313585075,80.227000000000004,-21.086999999999989,0.22519832118394831,-21.480445094214502,0.12264425736726919
20211207140000,424.67287991045538,0.96804719714332121,0.13094172579505542,0,-13.682452360805135,0,-0.13179056651912005,2,0.68993304330835847,0,191.75733436053088,2.3525585154181936,6.0641416004506414,0.88381075221934491,0.76306176700469419,0.54813643362999531,0.31742666281009746,194.89514654802582,9.7488317880291817E-002,80.883267341815639,147.88040909586715,176.97508050426333,221.55180016431788,94.117395889539935,78.942333333333337,-20.931333333333328,0.24309901617539695,-21.306743667602518,0.13113783627443007
20211207143000,424.82713600892794,1.0127962762856944,0.18054473177964836,0,10.326730504233398,1,0.59065053594936556,1,0.73923564932818031,0,177.04317642426795,1.7646094692921908,4.9540122948316112,0.82117447868587612,0.68107175581241364,0.52307781788661956,0.37305457485806942,-419.09888592777315,-4.5335362698326116E-002,95.547593522768764,174.69147430160547,209.06107791393103,261.71966145826013,94.094418103972188,79.957666666666668,-20.560666666666663,0.23894096033769571,-20.924570835811039,0.16148881915675684
20211207150000,424.89785692216589,1.0432701877553003,0.13254017631248305,0,30.389854589948481,0,1.3965653139857117,1,0.72708185603474040,0,184.50886307983086,2.0294804407060854,5.4285844696039396,0.80568906103083227,0.58629829960691449,0.49591019448734053,0.31991602584766698,-89.810821549830081,-0.21155579775493044,88.178207817664855,161.21788688765349,192.93663498167231,241.53377230307669,94.089783063786598,79.355666666666664,-20.131000000000000,0.25543397512630434,-20.483459968367669,0.19614304532571605
20211207153000,424.93268188721254,1.0728541152616775,0.15142047070375630,0,26.107134938084979,0,3.5538402749382909,0,1.0796156237200096,0,188.83192457812359,1.7061588023279037,4.7095953542922100,0.78760026289476959,0.70427620377557354,0.50727528604913452,0.34231583368011126,-128.07386187656300,-0.14835189414614602,91.411645435433343,167.12964210496983,200.01149609344952,250.39065888146143,94.085845274088527,77.911000000000001,-19.593333333333334,0.28625871555062304,-19.878091588338179,0.17288453561836006
20211207160000,424.15669926030404,1.1185256125904322,0.13531534834465031,1,46.613251886504052,1,-2.2993627821072211,0,-0.17941199337149188,2,185.67870539389619,1.8803702757925180,4.7254957030939710,0.72628565907841203,0.74265430443401592,0.49522863417727503,0.32427504926125195,-60.962513747924348,-0.31166693812141094,89.236212464141261,163.15225681468746,195.25158173935904,244.43181094212503,94.052126498263888,74.774333333333331,-18.629666666666679,0.35499409971670659,-19.011482983059267,0.37041286124702066
20211207163000,424.05901333648154,1.1724703141368560,0.24890577491788887,0,60.409436630321217,0,3.7832324797567471,0,0.76483911712927011,0,170.15063484673544,2.3453704871955963,5.6938912123166077,0.99025100908929342,0.83404059943505982,0.67257329337664773,0.44054864923151699,-117.94136357807194,-0.16109700128592158,89.260292232299449,163.19628231072880,195.30426901385192,244.49776915769070,94.037870617404508,73.096666666666664,-17.808999999999997,0.40590989750912426,-18.154854654947940,0.28537831647030543
20211207170000,423.75794766756462,1.2331344556568404,0.28147784525547043,0,89.706499192945145,0,2.5029843720120808,0,0.17231963450713914,2,179.78477445688222,2.0888387644080630,6.1290118193884675,1.0530441934788288,0.87883755526387464,0.69108990102428136,0.46929591540369253,-96.007149225042085,-0.19790192869349488,91.872319666639783,167.97190152412549,201.01946550212162,251.65251697111765,94.035596580886434,71.448666666666668,-16.939666666666653,0.46350183937088302,-17.180659080737200,0.41291562582312086
20211207173000,423.62743385435863,1.3179021317526600,0.28671150547243424,0,89.982324382573850,0,4.2220884074204248,0,0.13376718385666506,0,168.41972309422451,2.0661038287160238,6.0015865945678577,1.0739738988779486,0.93337761966743760,0.66046740700992845,0.47466592156234277,-99.009641612026613,-0.19190050272530315,96.135597415850754,175.76653295238245,210.34764854510044,263.33029521845930,93.997992733289919,70.203999999999994,-15.938333333333333,0.52591351003778697,-16.263648998684346,0.29993142684368351
20211207180000,423.19992044975476,1.3120011969161314,0.39265262296159015,0,86.507881246433513,0,7.4521066484172049,0,0.22114933475925327,2,172.28723179954144,2.1398703106746710,6.3668901515865794,1.1921484700583638,0.88570799344098139,0.67975273986268858,0.55591311050317249,-165.38977173171921,-0.11488013920727901,106.60551181347192,194.90887567916397,233.25614376650725,292.00901281472608,93.959460851779525,68.171666666666667,-15.643666666666661,0.57570660558293540,-15.798649379306369,0.21826005286478598
20211207183000,422.77530359988066,1.3390046605954313,0.29971617088595026,0,83.771577484983212,0,12.499569791688080,0,1.4552408934135324,0,170.79502800285175,1.8135028722915170,5.2257543868702845,1.0336856628081239,0.84057357368001306,0.58048243635997920,0.48631181058528428,-114.28533125070265,-0.16625055719811097,108.68146559015223,198.70438127443413,237.79839457839043,297.69537182811450,93.897779230251729,66.768666666666661,-15.154333333333341,0.62593458991332318,-15.330363047281935,0.25614929172459172
20211207190000,422.70565279218744,1.3858507174549857,0.25874413304863342,0,45.592536092549665,0,12.417420119103536,1,1.1284815065720770,1,187.46248410579409,1.5408555339767684,4.7441377566450118,1.0009002873580612,0.80146253833169001,0.56126542280301339,0.45254358943410311,-169.18675520765882,-0.11230193508161743,105.40193969246224,192.70836198231834,230.62269089042323,288.71224231075530,93.877011593477306,65.058333333333337,-14.424333333333323,0.69892869238337851,-14.698196807868044,0.25458334902045859
20211207193000,422.52557217169198,1.4170353863837877,0.35225397514574047,1,67.564290170289325,0,4.0977381474373988,1,0.48860660065024242,1,166.95287882437555,2.0266046829404210,6.2567516747142164,0.92820927232913242,0.94596399724737690,0.65924216101561994,0.52872804566329934,-182.03486129703896,-0.10437561170767383,104.95540248176366,191.89194954542242,229.64565371810471,287.48910771046104,93.844440614149292,63.321666666666665,-13.826333333333309,0.77048285772708169,-14.070624409993457,0.21445879596091241
20211207200000,422.28680674329058,1.3679915982617337,0.32998786304665206,0,59.176197123246340,0,9.3450682131219409,0,0.54471011188064089,1,170.75432186743208,2.1907394338551995,5.3591273973632818,1.0462424928089267,0.86971866078682147,0.66994790168166984,0.51177686047377202,-188.45760853559909,-0.10081842886386280,100.94541351876697,184.56041080068024,220.87167434177138,276.50512668956009,93.828504533203130,61.152999999999999,-13.833000000000027,0.81559475127478442,-14.174600863986598,0.23881794204186504
20211207203000,422.94908855603518,1.3025631001305982,0.17078322419809380,0,36.640995771928232,0,2.7127948350236237,2,-2.0336231947257366E-002,2,173.04848611600050,2.2244631302127886,6.6323629208853836,1.1633641801824230,0.87984605235911972,0.58962794192411461,0.36786090855766412,-113.01581380200575,-0.16811806561236120,85.849815510303003,156.96084314715750,187.84204088844089,235.15594504487845,93.811041263320405,60.569666666666663,-14.317000000000007,0.79569104735623286,-14.645157623206160,0.15922875146630891
20211207210000,423.33873152697447,1.3613697184141016,0.17997199656829618,0,19.561535007186681,0,-3.3791187677053651,0,0.12990855454373812,1,159.91464475334033,1.4360011463912299,4.4115953769596699,0.79354565686933287,0.69360136942378481,0.51614921161912619,0.37774484351122806,-229.13965493754853,-8.2918864502865758E-002,97.542418817098067,178.33865115653566,213.42581710731613,267.18379698958393,93.765067736914759,63.126333333333335,-14.288666666666643,0.74582922720373068,-14.621607147411794,8.1873115503879171E-002
20211207213000,423.57972531184555,1.5344856123459605,0.18576814534319996,0,4.0254428795375166,0,2.1257668050212239,2,0.67041327990384847,0,161.52879754524758,1.4387903194330398,4.1803698196038548,0.77856598272860955,0.60675820097385336,0.47277613381677153,0.38384014546643919,-1168.2614775223772,-1.6263482418589010E-002,105.98655599794772,193.77722704255325,231.90184937557891,290.31359694370252,93.760017672960061,70.852999999999994,-14.237666666666655,0.59201484643294811,-14.461820874532066,5.3561165754567611E-002
20211207220000,423.86064253116024,1.6012354483338729,0.12629681762055311,0,-3.9992262332435624,0,2.6125230079677499,0,0.67009396622248552,0,143.05400834585583,1.6473205637700301,3.7880841586728953,0.72348105378998373,0.59729589667610883,0.40635208173894133,0.31648973254221574,658.99671606690970,2.8831706648551614E-002,102.52283545880505,187.44444119999412,224.32312213810818,280.82592976687903,93.721805523220482,74.596999999999994,-14.351333333333343,0.51118248851342885,-14.499312900967027,7.0589916845768264E-002
20211207223000,424.27889501073042,1.5697334762576600,0.19980354325990643,0,-16.745889439896214,0,2.1485565784086722,0,0.90620650198736685,0,146.39271897900250,2.2744678404355057,6.8474260049376197,0.83788835375279147,0.70120713280481051,0.54921587240204395,0.39775784623960170,312.34942675400634,6.0829309653139284E-002,96.728719852599596,176.85094993345825,211.64541870748661,264.95494946275710,93.696270504774304,76.049999999999997,-14.831000000000017,0.46330928449211628,-15.007932867262014,0.23594092168370165